| time (UTC) | temp C | wind direction | speed KPH | gust KPH | rain 1hr cm | rain 24hr cm | rain mn cm | humidity % | barometer mb |
| 20260502224544 | 18 | 62 | 8.0 | 16.1 | 0.00 | 0.00 | 0.00 | 82 | 1013.8 |
| 20260502223538 | 18 | 42 | 6.4 | 12.9 | 0.00 | 0.00 | 0.00 | 82 | 1013.8 |
| 20260502222529 | 17 | 34 | 4.8 | 11.3 | 0.00 | 0.00 | 0.00 | 82 | 1013.8 |
| 20260502221523 | 17 | 57 | 6.4 | 9.7 | 0.00 | 0.00 | 0.00 | 83 | 1013.9 |
| 20260502220615 | 17 | 45 | 4.8 | 8.0 | 0.00 | 0.00 | 0.00 | 83 | 1013.9 |
| 20260502215608 | 17 | 27 | 8.0 | 17.7 | 0.00 | 0.00 | 0.00 | 84 | 1014.0 |
| 20260502214601 | 17 | 37 | 6.4 | 9.7 | 0.00 | 0.00 | 0.00 | 84 | 1014.2 |
| 20260502213553 | 17 | 25 | 4.8 | 6.4 | 0.00 | 0.00 | 0.00 | 83 | 1014.1 |
| 20260502212544 | 17 | 21 | 6.4 | 8.0 | 0.00 | 0.00 | 0.00 | 83 | 1014.2 |
| 20260502211556 | 17 | 49 | 6.4 | 9.7 | 0.00 | 0.00 | 0.00 | 82 | 1014.3 |
| 20260502210529 | 17 | 17 | 8.0 | 14.5 | 0.00 | 0.00 | 0.00 | 81 | 1014.3 |
| 20260502205521 | 18 | 45 | 8.0 | 12.9 | 0.00 | 0.00 | 0.00 | 81 | 1014.4 |
| 20260502204614 | 18 | 61 | 4.8 | 6.4 | 0.00 | 0.00 | 0.00 | 81 | 1014.3 |
| 20260502203605 | 18 | 40 | 11.3 | 16.1 | 0.00 | 0.00 | 0.00 | 81 | 1014.1 |
| 20260502202558 | 18 | 26 | 8.0 | 12.9 | 0.00 | 0.00 | 0.00 | 81 | 1014.1 |
| 20260502201550 | 18 | 39 | 8.0 | 16.1 | 0.00 | 0.00 | 0.00 | 81 | 1014.0 |
| 20260502200542 | 18 | 45 | 6.4 | 9.7 | 0.00 | 0.00 | 0.00 | 81 | 1014.0 |
| 20260502195557 | 18 | 45 | 6.4 | 9.7 | 0.00 | 0.00 | 0.00 | 82 | 1013.8 |
| 20260502194548 | 18 | 39 | 6.4 | 12.9 | 0.00 | 0.00 | 0.00 | 81 | 1013.7 |
| 20260502193519 | 18 | 36 | 8.0 | 12.9 | 0.00 | 0.00 | 0.00 | 82 | 1013.7 |
| 20260502192612 | 18 | 24 | 8.0 | 14.5 | 0.00 | 0.00 | 0.00 | 83 | 1013.7 |
| 20260502191605 | 18 | 27 | 9.7 | 14.5 | 0.00 | 0.00 | 0.00 | 82 | 1013.6 |
| 20260502190557 | 18 | 45 | 9.7 | 12.9 | 0.00 | 0.00 | 0.00 | 82 | 1013.7 |
| 20260502185549 | 18 | 30 | 8.0 | 12.9 | 0.00 | 0.00 | 0.00 | 82 | 1013.8 |
| 20260502184542 | 18 | 35 | 11.3 | 20.9 | 0.00 | 0.00 | 0.00 | 81 | 1013.6 |
| 20260502183533 | 18 | 37 | 9.7 | 17.7 | 0.00 | 0.00 | 0.00 | 81 | 1013.5 |
| 20260502182547 | 18 | 21 | 11.3 | 17.7 | 0.00 | 0.00 | 0.00 | 80 | 1013.6 |
| 20260502181518 | 18 | 29 | 6.4 | 14.5 | 0.00 | 0.00 | 0.00 | 80 | 1013.7 |
| 20260502180612 | 18 | 19 | 9.7 | 14.5 | 0.00 | 0.00 | 0.00 | 80 | 1013.7 |
| 20260502163602 | 20 | 33 | 9.7 | 17.7 | 0.00 | 0.00 | 0.00 | 76 | 1014.4 |
| 20260502162554 | 20 | 50 | 12.9 | 20.9 | 0.00 | 0.00 | 0.00 | 75 | 1014.3 |
| 20260502161546 | 20 | 52 | 11.3 | 17.7 | 0.00 | 0.00 | 0.00 | 74 | 1014.5 |
| 20260502160600 | 21 | 45 | 11.3 | 14.5 | 0.00 | 0.00 | 0.00 | 73 | 1014.7 |
| 20260502151601 | 21 | 45 | 8.0 | 12.9 | 0.00 | 0.00 | 0.00 | 72 | 1015.0 |
| 20260502150553 | 21 | 32 | 8.0 | 12.9 | 0.00 | 0.00 | 0.00 | 72 | 1015.3 |
| 20260502130522 | 21 | 68 | 6.4 | 11.3 | 0.00 | 0.00 | 0.00 | 72 | 1016.6 |
| 20260502123600 | 21 | 97 | 6.4 | 11.3 | 0.00 | 0.00 | 0.00 | 73 | 1016.7 |
| 20260502122614 | 21 | 34 | 9.7 | 14.5 | 0.00 | 0.00 | 0.00 | 72 | 1016.9 |
| 20260502121545 | 21 | 54 | 8.0 | 17.7 | 0.00 | 0.00 | 0.00 | 71 | 1016.8 |
| 20260502120537 | 22 | 180 | 11.3 | 17.7 | 0.00 | 0.00 | 0.00 | 70 | 1016.9 |
| 20260502115550 | 22 | 84 | 8.0 | 16.1 | 0.00 | 0.00 | 0.00 | 70 | 1016.9 |
| 20260502114522 | 22 | 37 | 9.7 | 16.1 | 0.00 | 0.00 | 0.00 | 71 | 1017.1 |
| 20260502113615 | 22 | 51 | 8.0 | 14.5 | 0.00 | 0.00 | 0.00 | 70 | 1017.2 |
| 20260502112607 | 22 | 55 | 8.0 | 12.9 | 0.00 | 0.00 | 0.00 | 71 | 1017.3 |
| 20260502111620 | 22 | 21 | 8.0 | 17.7 | 0.00 | 0.00 | 0.00 | 69 | 1017.4 |
| 20260502110552 | 22 | 58 | 8.0 | 17.7 | 0.00 | 0.00 | 0.00 | 68 | 1017.4 |
| 20260502105606 | 22 | 78 | 6.4 | 12.9 | 0.00 | 0.00 | 0.00 | 69 | 1017.3 |
| 20260502104537 | 22 | 140 | 11.3 | 19.3 | 0.00 | 0.00 | 0.00 | 70 | 1017.4 |
| 20260502103530 | 22 | 118 | 9.7 | 17.7 | 0.00 | 0.00 | 0.00 | 70 | 1017.4 |
| 20260502102522 | 21 | 41 | 9.7 | 16.1 | 0.00 | 0.00 | 0.00 | 71 | 1017.7 |
| 20260502101615 | 21 | 62 | 8.0 | 12.9 | 0.00 | 0.00 | 0.00 | 72 | 1017.8 |
| 20260502100609 | 21 | 45 | 4.8 | 6.4 | 0.00 | 0.00 | 0.00 | 72 | 1018.0 |
| 20260502090523 | 20 | 81 | 6.4 | 11.3 | 0.00 | 0.00 | 0.00 | 74 | 1018.0 |
| 20260502070553 | 19 | 23 | 6.4 | 11.3 | 0.00 | 0.00 | 0.00 | 75 | 1018.0 |
| 20260502065546 | 19 | 39 | 11.3 | 17.7 | 0.00 | 0.00 | 0.00 | 75 | 1017.9 |
| 20260502064538 | 19 | 54 | 8.0 | 12.9 | 0.00 | 0.00 | 0.00 | 76 | 1017.9 |
| 20260502063531 | 18 | 26 | 8.0 | 14.5 | 0.00 | 0.00 | 0.00 | 77 | 1017.9 |
| 20260502062523 | 18 | 38 | 8.0 | 12.9 | 0.00 | 0.00 | 0.00 | 77 | 1017.9 |
| 20260502060610 | 18 | 45 | 3.2 | 8.0 | 0.00 | 0.00 | 0.00 | 77 | 1017.7 |
| 20260502055601 | 18 | 25 | 6.4 | 12.9 | 0.00 | 0.00 | 0.00 | 78 | 1017.7 |
| 20260502054553 | 18 | 38 | 6.4 | 12.9 | 0.00 | 0.00 | 0.00 | 78 | 1017.7 |
| 20260502053546 | 18 | 20 | 4.8 | 9.7 | 0.00 | 0.00 | 0.00 | 77 | 1017.8 |
| 20260502052600 | 18 | 28 | 6.4 | 9.7 | 0.00 | 0.00 | 0.00 | 78 | 1017.7 |
| 20260502051552 | 18 | 45 | 4.8 | 9.7 | 0.00 | 0.00 | 0.00 | 78 | 1017.7 |
| 20260502050524 | 18 | 23 | 3.2 | 4.8 | 0.00 | 0.00 | 0.00 | 78 | 1017.7 |
| 20260502045516 | 18 | 38 | 4.8 | 8.0 | 0.00 | 0.00 | 0.00 | 77 | 1017.6 |
| 20260502044609 | 18 | 45 | 4.8 | 6.4 | 0.00 | 0.00 | 0.00 | 77 | 1017.7 |
| 20260502043603 | 18 | 36 | 4.8 | 6.4 | 0.00 | 0.00 | 0.00 | 77 | 1017.7 |
| 20260502042555 | 18 | 45 | 4.8 | 8.0 | 0.00 | 0.00 | 0.00 | 77 | 1017.7 |
| 20260502041547 | 18 | 42 | 6.4 | 9.7 | 0.00 | 0.00 | 0.00 | 77 | 1017.7 |
| 20260502040600 | 18 | 16 | 6.4 | 9.7 | 0.00 | 0.00 | 0.00 | 77 | 1017.9 |
| 20260502035533 | 18 | 38 | 6.4 | 12.9 | 0.00 | 0.00 | 0.00 | 78 | 1017.9 |
| 20260502034525 | 18 | 42 | 4.8 | 8.0 | 0.00 | 0.00 | 0.00 | 78 | 1018.0 |
| 20260502033517 | 18 | 37 | 6.4 | 11.3 | 0.00 | 0.00 | 0.00 | 79 | 1017.9 |
| 20260502032611 | 18 | 33 | 6.4 | 11.3 | 0.00 | 0.00 | 0.00 | 79 | 1018.0 |
| 20260502031603 | 18 | 13 | 9.7 | 16.1 | 0.00 | 0.00 | 0.00 | 79 | 1018.0 |
| 20260502030555 | 18 | 35 | 6.4 | 12.9 | 0.00 | 0.00 | 0.00 | 79 | 1017.8 |
| 20260502025548 | 18 | 53 | 6.4 | 11.3 | 0.00 | 0.00 | 0.00 | 79 | 1017.8 |
| 20260502024541 | 18 | 27 | 4.8 | 12.9 | 0.00 | 0.00 | 0.00 | 79 | 1017.9 |
| 20260502023555 | 18 | 12 | 4.8 | 11.3 | 0.00 | 0.00 | 0.00 | 80 | 1017.9 |
| 20260502022526 | 18 | 19 | 4.8 | 8.0 | 0.00 | 0.00 | 0.00 | 80 | 1017.9 |
| 20260502021519 | 18 | 40 | 6.4 | 11.3 | 0.00 | 0.00 | 0.00 | 79 | 1017.9 |
| 20260502020613 | 18 | 45 | 6.4 | 9.7 | 0.00 | 0.00 | 0.00 | 79 | 1018.2 |
| 20260502015606 | 18 | 45 | 8.0 | 11.3 | 0.00 | 0.00 | 0.00 | 79 | 1018.1 |
| 20260502014557 | 18 | 55 | 6.4 | 9.7 | 0.00 | 0.00 | 0.00 | 78 | 1018.1 |
| 20260502013551 | 18 | 74 | 8.0 | 14.5 | 0.00 | 0.00 | 0.00 | 78 | 1018.2 |
| 20260502012543 | 18 | 45 | 4.8 | 9.7 | 0.00 | 0.00 | 0.00 | 78 | 1018.3 |
| 20260502011535 | 18 | 55 | 6.4 | 12.9 | 0.00 | 0.00 | 0.00 | 78 | 1018.4 |
| 20260502010548 | 18 | 62 | 4.8 | 12.9 | 0.00 | 0.00 | 0.00 | 78 | 1018.6 |
| 20260502005520 | 18 | 45 | 6.4 | 11.3 | 0.00 | 0.00 | 0.00 | 79 | 1018.7 |
| 20260502004615 | 18 | 68 | 6.4 | 11.3 | 0.00 | 0.00 | 0.00 | 79 | 1018.8 |
| 20260502003606 | 18 | 47 | 4.8 | 12.9 | 0.00 | 0.00 | 0.00 | 78 | 1018.9 |
| 20260502002620 | 18 | 44 | 6.4 | 8.0 | 0.00 | 0.00 | 0.00 | 78 | 1019.1 |
| 20260502001551 | 18 | 45 | 4.8 | 11.3 | 0.00 | 0.00 | 0.00 | 77 | 1019.2 |
| 20260502000544 | 18 | 45 | 4.8 | 8.0 | 0.00 | 0.00 | 0.00 | 78 | 1019.5 |
| 20260501235537 | 18 | 24 | 3.2 | 6.4 | 0.00 | 0.00 | 0.00 | 78 | 1019.6 |
| 20260501234529 | 18 | 45 | 6.4 | 11.3 | 0.00 | 0.00 | 0.00 | 78 | 1019.7 |
| 20260501233522 | 18 | 45 | 6.4 | 8.0 | 0.00 | 0.00 | 0.00 | 77 | 1019.8 |
| 20260501232616 | 18 | 35 | 4.8 | 11.3 | 0.00 | 0.00 | 0.00 | 77 | 1019.8 |
| 20260501231628 | 18 | 48 | 6.4 | 9.7 | 0.00 | 0.00 | 0.00 | 77 | 1019.7 |
| 20260501230600 | 18 | 23 | 4.8 | 8.0 | 0.00 | 0.00 | 0.00 | 77 | 1019.7 |
| 20260501225554 | 18 | 51 | 6.4 | 12.9 | 0.00 | 0.00 | 0.00 | 77 | 1019.7 |